User: anonymous   Login
Location: Barnston
(51.8500°N, 0.4000°E)
Time: 22:35:04
(UTC+00:00)
Language:

SKYMED 2 - Orbit

View from above orbital plane
View from above orbital plane
View from above satellite
View from above satellite

Ground track
Ground track

The orbit data is extracted from the following two-line orbital elements,

1 32376U 07059A   24055.61704689  .00001039  00000-0  13708-3 0  9994
2 32376  97.8833 240.4276 0001380  82.7885 277.3485 14.82152620877049
Epoch (UTC): 24 February 2024 14:48:32
Eccentricity: 0.0001380
inclination: 97.8833°
perigee height: 621 km
apogee height: 623 km
right ascension of ascending node: 240.4276°
argument of perigee: 82.7885°
revolutions per day: 14.82152620
mean anomaly at epoch: 277.3485°
orbit number at epoch: 87704

The dashed part of the orbit path shows where the satellite is in the earth's shadow,  

DLR